Weather History for Stuttgart, AR

Change the Weather History Date:

Tuesday, December 4, 2012

  Actual Average Record
Temperature  
Mean Temperature 63 °F -  
Max Temperature 73 °F 53 °F 78 °F (2013)
Min Temperature 53 °F 39 °F 21 °F (2006)
Degree Days  
Heating Degree Days 2    
Growing Degree Days 13 (Base 50)    
Moisture  
Dew Point 56 °F    
Average Humidity 82    
Maximum Humidity 88    
Minimum Humidity 69    
Precipitation  
Precipitation 0.65 in - - ()
Sea Level Pressure  
Sea Level Pressure 30.14 in    
Wind  
Wind Speed 11 mph (SE)    
Max Wind Speed 18 mph    
Max Gust Speed 30 mph    
Visibility 10 miles    
Events Thunderstorm    
Averages and records for this station are not official NWS values.
T = Trace of Precipitation, MM = Missing Value Source: NWS Daily Summary

Daily Weather History Graph

Daily Weather History Graph

Search for Another Location

Airport:

Trip Planner

Search our weather history database for the weather conditions in past years. The results will help you decide how hot, cold, wet, or windy it might be!

Date:

Astronomy

Dec. 04, 2012 Rise Set
Actual Time 6:57 AM CST 4:55 PM CST
Civil Twilight 6:30 AM CST 5:23 PM CST
Nautical Twilight 5:59 AM CST 5:54 PM CST
Astronomical Twilight 5:28 AM CST 6:24 PM CST
Moon 10:33 PM CST (12/4) 11:00 AM CST (12/4)
Length of Visible Light 10h 52m
Length of Day
9h 57m
Waning Gibbous, 69% of the Moon is Illuminated
Dec 4
Waning Gibbous
Dec 6
Last Quarter
Dec 13
New
Dec 19
First Quarter
Dec 28
Full

Hourly Weather History & Observations

Time (CST) Temp. Dew Point Humidity Pressure Visibility Wind Dir Wind Speed Gust Speed Precip Events Conditions
12:15 AM 66.2 °F 59.0 °F 78% 30.08 in 10.0 mi South 8.1 mph - N/A   Overcast
12:36 AM 66.2 °F 59.0 °F 78% 30.07 in 10.0 mi South 11.5 mph - N/A   Overcast
12:55 AM 66.2 °F 59.0 °F 78% 30.08 in 10.0 mi South 9.2 mph - N/A   Mostly Cloudy
1:15 AM 66.2 °F 59.0 °F 78% 30.08 in 10.0 mi South 10.4 mph - N/A   Overcast
1:55 AM 66.2 °F 59.0 °F 78% 30.09 in 10.0 mi SSW 11.5 mph - N/A   Overcast
2:15 AM 66.2 °F 60.8 °F 83% 30.09 in 10.0 mi South 11.5 mph - N/A   Overcast
2:36 AM 66.2 °F 60.8 °F 83% 30.08 in 10.0 mi South 16.1 mph - N/A   Overcast
2:55 AM 66.2 °F 59.0 °F 78% 30.07 in 10.0 mi South 12.7 mph - N/A   Mostly Cloudy
3:35 AM 64.4 °F 59.0 °F 83% 30.07 in 10.0 mi South 12.7 mph - N/A   Partly Cloudy
4:15 AM 62.6 °F 57.2 °F 82% 30.08 in 10.0 mi South 8.1 mph - N/A   Partly Cloudy
4:35 AM 64.4 °F 59.0 °F 83% 30.08 in 10.0 mi South 8.1 mph - N/A   Mostly Cloudy
4:55 AM 64.4 °F 57.2 °F 77% 30.08 in 10.0 mi SSE 8.1 mph - N/A   Overcast
5:36 AM 62.6 °F 57.2 °F 82% 30.08 in 10.0 mi SSE 9.2 mph - N/A   Overcast
5:55 AM 62.6 °F 57.2 °F 82% 30.08 in 10.0 mi SSE 9.2 mph - N/A   Mostly Cloudy
6:15 AM 62.6 °F 57.2 °F 82% 30.08 in 10.0 mi South 12.7 mph - N/A   Overcast
6:55 AM 64.4 °F 59.0 °F 83% 30.10 in 10.0 mi South 10.4 mph - N/A   Overcast
7:15 AM 64.4 °F 59.0 °F 83% 30.10 in 10.0 mi South 10.4 mph - N/A   Overcast
7:35 AM 64.4 °F 59.0 °F 83% 30.12 in 10.0 mi South 9.2 mph - N/A   Overcast
7:55 AM 64.4 °F 60.8 °F 88% 30.13 in 10.0 mi SSW 9.2 mph - N/A   Overcast
8:15 AM 66.2 °F 60.8 °F 83% 30.13 in 10.0 mi SSW 9.2 mph - N/A   Overcast
8:35 AM 66.2 °F 60.8 °F 83% 30.14 in 10.0 mi SSW 16.1 mph 19.6 mph N/A   Overcast
8:55 AM 68.0 °F 62.6 °F 83% 30.13 in 10.0 mi SSW 17.3 mph 20.7 mph N/A   Mostly Cloudy
9:35 AM 69.8 °F 62.6 °F 78% 30.13 in 10.0 mi South 16.1 mph 25.3 mph N/A   Mostly Cloudy
9:55 AM 69.8 °F 62.6 °F 78% 30.14 in 10.0 mi SSW 16.1 mph - N/A   Mostly Cloudy
10:16 AM 71.6 °F 62.6 °F 73% 30.15 in 10.0 mi SSW 13.8 mph - N/A   Scattered Clouds
10:35 AM 73.4 °F 62.6 °F 69% 30.14 in 10.0 mi SSW 12.7 mph - N/A   Scattered Clouds
10:55 AM 73.4 °F 62.6 °F 69% 30.14 in 10.0 mi SSW 12.7 mph - N/A   Mostly Cloudy
11:15 AM 71.6 °F 62.6 °F 73% 30.15 in 10.0 mi SSW 9.2 mph - N/A   Mostly Cloudy
11:35 AM 71.6 °F 62.6 °F 73% 30.15 in 10.0 mi North 12.7 mph 19.6 mph N/A Thunderstorm Overcast
11:56 AM 62.6 °F 53.6 °F 72% 30.16 in 10.0 mi NNE 18.4 mph 29.9 mph N/A Thunderstorm Overcast
12:35 PM 59.0 °F 53.6 °F 82% 30.13 in 3.0 mi ENE 17.3 mph - N/A Thunderstorm Thunderstorm
12:55 PM 59.0 °F 53.6 °F 82% 30.15 in 4.0 mi East 13.8 mph 19.6 mph N/A Thunderstorm Mostly Cloudy
1:15 PM 59.0 °F 53.6 °F 82% 30.11 in 10.0 mi NE 16.1 mph - N/A Thunderstorm Thunderstorm
1:35 PM 59.0 °F 53.6 °F 82% 30.13 in 7.0 mi ENE 9.2 mph - N/A Thunderstorm Thunderstorm
1:55 PM 59.0 °F 55.4 °F 88% 30.12 in 7.0 mi ENE 11.5 mph 17.3 mph 0.60 in Thunderstorm Thunderstorm
2:55 PM 59.0 °F 55.4 °F 88% 30.13 in 10.0 mi SSE 6.9 mph - 0.05 in Thunderstorm Thunderstorm
3:15 PM 59.0 °F 55.4 °F 88% 30.13 in 10.0 mi ESE 6.9 mph - N/A   Overcast
3:35 PM 59.0 °F 55.4 °F 88% 30.13 in 10.0 mi Calm Calm - N/A   Overcast
4:15 PM 59.0 °F 55.4 °F 88% 30.13 in 10.0 mi NNW 8.1 mph - N/A   Overcast
4:35 PM 57.2 °F 53.6 °F 88% 30.13 in 10.0 mi North 6.9 mph - N/A   Mostly Cloudy
4:55 PM 57.2 °F 53.6 °F 88% 30.16 in 10.0 mi NNW 9.2 mph - N/A   Scattered Clouds
5:35 PM 57.2 °F 53.6 °F 88% 30.15 in 10.0 mi North 10.4 mph - N/A   Mostly Cloudy
5:55 PM 57.2 °F 53.6 °F 88% 30.16 in 10.0 mi North 11.5 mph - N/A   Overcast
6:15 PM 57.2 °F 53.6 °F 88% 30.17 in 10.0 mi NNE 9.2 mph - N/A   Overcast
6:55 PM 57.2 °F 53.6 °F 88% 30.19 in 10.0 mi NNE 10.4 mph - N/A   Overcast
7:15 PM 57.2 °F 53.6 °F 88% 30.21 in 10.0 mi North 12.7 mph - N/A   Overcast
7:55 PM 55.4 °F 51.8 °F 88% 30.24 in 10.0 mi North 15.0 mph - N/A   Overcast
8:35 PM 55.4 °F 51.8 °F 88% 30.25 in 10.0 mi NNE 15.0 mph - N/A   Overcast
9:15 PM 55.4 °F 48.2 °F 77% 30.24 in 10.0 mi NNE 18.4 mph - N/A   Overcast
9:35 PM 55.4 °F 48.2 °F 77% 30.24 in 10.0 mi NNE 16.1 mph - N/A   Overcast
9:55 PM 53.6 °F 48.2 °F 82% 30.23 in 10.0 mi NNE 16.1 mph - N/A   Overcast
10:15 PM 53.6 °F 48.2 °F 82% 30.24 in 10.0 mi NNE 12.7 mph 19.6 mph N/A   Overcast
10:55 PM 53.6 °F 48.2 °F 82% 30.26 in 10.0 mi North 13.8 mph - N/A   Overcast
11:15 PM 53.6 °F 48.2 °F 82% 30.26 in 10.0 mi North 11.5 mph - N/A   Overcast
11:35 PM 53.6 °F 48.2 °F 82% 30.27 in 10.0 mi North 12.7 mph - N/A   Overcast